{"data":{"norad_id":62528,"intl_designator":"2025-004T","name":"STARLINK-32786","alt_names":[],"object_type":"PAYLOAD","status":"ACTIVE","operator":null,"country":"US","launch_date":"2025-01-08","launch_site_code":"AFETR","launch_vehicle":null,"mission":null,"orbit_class":"UNKNOWN","rcs_meters":null,"size_class":null,"mass_kg":null,"dimensions":null,"purposes":["comms"],"wikipedia_slug":null,"has_3d_model":false,"image_url":null,"decayed_at":null,"tle_current":{"epoch":"2026-09-21T04:43:03.651456Z","epoch_age_seconds":111152,"freshness":"FRESH","line1":"1 62528U 25004T   26264.19657004  .00018700  00000+0  68665-3 0  9995","line2":"2 62528  43.0003 195.3408 0001519 251.3525 108.7162 15.27613102 95416","mean_motion":15.27613102,"eccentricity":0.0001519,"inclination_deg":43.0003,"raan_deg":195.3408,"arg_perigee_deg":251.3525,"mean_anomaly_deg":108.7162,"bstar":0.00068665,"rev_number":9541,"period_min":94.264706038113,"perigee_km":481.90777942109,"apogee_km":483.99217764517,"semimajor_km":6861.0869785331,"source":"CELESTRAK","updated_at":"2026-09-22T09:00:49.624947Z"}}}